Tracking 29892 objects as of 21-Nov-2024
HD Live streaming from Space Station
objects crossing your sky now

STARLINK-31804

Track STARLINK-31804 now!
10-day predictions
STARLINK-31804 is classified as:


NORAD ID: 59641
Int'l Code: 2024-082L
Perigee: 450.7 km
Apogee: 451.6 km
Inclination: 43.0 °
Period: 93.5 minutes
Semi major axis: 6822 km
RCS: Unknown
Launch date: May 3, 2024
Source: United States (US)
Launch site: AIR FORCE EASTERN TEST RANGE (AFETR)
Your satellite tracking list
Your tracking list is empty




NASA's NSSDC Master Catalog

Two Line Element Set (TLE):
1 59641U 24082L   24325.93241318  .00013377  00000-0  32679-3 0  9999
2 59641  42.9980 306.0197 0000685  18.3928 341.6953 15.40712468 32234
Source of the keplerian elements: AFSPC